This is the latest recevied weather packets stored in our database for station/object KB9HUO. If no packets are shown the sender has not sent any weather packets the latest 10 day(s).
| Time | Temp. | Humidity | Pressure | Rain* | Wind** | Luminosity | Snow |
|---|---|---|---|---|---|---|---|
| 1787853654 | 28.89° C | 65% | 1016.9 hPa | 0 mm | - | 777 W/m² | - |
| 1787853349 | 28.33° C | 64% | 1016.7 hPa | 0 mm | - | 741 W/m² | - |
| 1787853039 | 28.33° C | 65% | 1016.7 hPa | 0 mm | - | 731 W/m² | - |
| 1787852738 | 27.78° C | 64% | 1016.8 hPa | 0 mm | - | 742 W/m² | - |
| 1787852432 | 28.33° C | 67% | 1016.7 hPa | 0 mm | - | 773 W/m² | - |
| 1787852131 | 28.33° C | 60% | 1016.7 hPa | 0 mm | - | 242 W/m² | - |
| 1787851822 | 27.78° C | 67% | 1016.8 hPa | 0 mm | - | 771 W/m² | - |
| 1787851521 | 27.22° C | 68% | 1017 hPa | 0 mm | - | 779 W/m² | - |
| 1787851220 | 27.22° C | 68% | 1016.9 hPa | 0 mm | - | 110 W/m² | - |
| 1787850917 | 28.33° C | 65% | 1016.9 hPa | 0 mm | - | 89 W/m² | - |
| 1787850618 | 28.89° C | 65% | 1016.9 hPa | 0 mm | - | 133 W/m² | - |
| 1787850313 | 28.89° C | 68% | 1017.1 hPa | 0 mm | - | 167 W/m² | - |
| 1787850003 | 28.33° C | 71% | 1017.1 hPa | 0 mm | - | 793 W/m² | - |
| 1787849702 | 27.78° C | 69% | 1017.3 hPa | 0 mm | - | 784 W/m² | - |
| 1787849398 | 28.33° C | 69% | 1017.3 hPa | 0 mm | - | 205 W/m² | - |
| 1787849090 | 27.78° C | 70% | 1017.2 hPa | 0 mm | - | 806 W/m² | - |
| 1787848785 | 27.22° C | 75% | 1017.3 hPa | 0 mm | - | 749 W/m² | - |
| 1787848484 | 27.22° C | 71% | 1017.4 hPa | 0 mm | - | 676 W/m² | - |
| 1787848179 | 27.78° C | 71% | 1017.5 hPa | 0 mm | - | 173 W/m² | - |
| 1787847879 | 27.22° C | 72% | 1017.4 hPa | 0 mm | - | 748 W/m² | - |
| 1787847574 | 27.78° C | 70% | 1017.5 hPa | 0 mm | - | 684 W/m² | - |
| 1787847269 | 27.78° C | 68% | 1017.4 hPa | 0 mm | - | 678 W/m² | - |
| 1787846966 | 27.78° C | 71% | 1017.4 hPa | 0 mm | - | 656 W/m² | - |
| 1787846673 | 27.78° C | 71% | 1017.5 hPa | 0 mm | - | 642 W/m² | - |
| 1787846361 | 27.78° C | 71% | 1017.4 hPa | 0 mm | - | 635 W/m² | - |
* Rain latest hour (hover to see other rain measurements)
** Current wind speed in m/s (hover to see current wind gust speed)